DW1231 Weather Reports


Display with metric or nautical units.
time (UTC)temp
F
wind
direction
speed
MPH
gust
MPH
rain 1hr
in
rain 24hr
in
rain mn
in
humidity
%
barometer
mb
20260505051312 73 124 8.0 10.0 0.00 0.00 0.00 72 1009.7
20260505050304 73 133 5.0 8.0 0.00 0.00 0.00 72 1009.4
20260505041313 73 144 5.0 8.0 0.00 0.00 0.00 70 1009.5
20260505040324 74 230 5.0 7.0 0.00 0.00 0.00 70 1009.9
20260505035312 74 172 4.0 6.0 0.00 0.00 0.00 70 1009.6
20260505034304 74 132 7.0 11.0 0.00 0.00 0.00 69 1009.6
20260505033312 74 160 6.0 8.0 0.00 0.00 0.00 69 1009.8
20260505032305 74 123 5.0 6.0 0.00 0.00 0.00 69 1009.9
20260505031313 74 100 4.0 6.0 0.00 0.00 0.00 68 1009.8
20260505030305 74 148 3.0 6.0 0.00 0.00 0.00 68 1009.8
20260505025333 74 110 5.0 7.0 0.00 0.00 0.00 68 1010.0
20260505024305 75 113 7.0 10.0 0.00 0.00 0.00 67 1009.8
20260505023313 75 136 5.0 7.0 0.00 0.00 0.00 67 1009.8
20260505022305 75 165 5.0 9.0 0.00 0.00 0.00 66 1009.9
20260505021333 75 138 5.0 7.0 0.00 0.00 0.00 66 1009.8
20260505020304 76 186 7.0 9.0 0.00 0.00 0.00 65 1009.5
20260505015312 76 165 7.0 8.0 0.00 0.00 0.00 65 1009.7
20260505014305 76 200 8.0 10.0 0.00 0.00 0.00 64 1009.5
20260505013312 76 358 6.0 8.0 0.00 0.00 0.00 63 1009.8
20260505012324 76 138 7.0 9.0 0.00 0.00 0.00 63 1009.7
20260505011313 76 174 5.0 6.0 0.00 0.00 0.00 63 1009.7
20260505010325 77 139 8.0 10.0 0.00 0.00 0.00 62 1009.6
20260505005313 77 96 8.0 13.0 0.00 0.00 0.00 62 1009.6
20260505004305 77 88 5.0 7.0 0.00 0.00 0.00 61 1009.5
20260505003313 77 135 5.0 6.0 0.00 0.00 0.00 61 1009.7
20260505002305 78 144 8.0 11.0 0.00 0.00 0.00 60 1009.8
20260505001314 79 113 10.0 13.0 0.00 0.00 0.00 59 1009.8
20260505000305 79 128 7.0 10.0 0.00 0.00 0.00 58 1009.7
20260504235313 79 128 7.0 10.0 0.00 0.00 0.00 58 1009.8
20260504234305 79 176 4.0 8.0 0.00 0.00 0.00 58 1009.8
20260504233313 79 117 8.0 10.0 0.00 0.00 0.00 57 1009.8
20260504232325 79 217 10.0 16.0 0.00 0.00 0.00 57 1009.9
20260504231313 80 190 7.0 9.0 0.00 0.00 0.00 56 1010.1
20260504230305 81 158 4.0 8.0 0.00 0.00 0.00 55 1010.2
20260504225313 81 162 10.0 15.0 0.00 0.00 0.00 54 1010.6
20260504224305 81 179 14.0 20.0 0.00 0.00 0.00 54 1010.3
20260504223333 81 151 15.0 22.0 0.00 0.00 0.00 54 1010.3
20260504222305 82 176 11.0 21.0 0.00 0.00 0.00 53 1010.1
20260504221313 82 159 10.0 17.0 0.00 0.00 0.00 53 1010.2
20260504220305 82 193 6.0 8.0 0.00 0.00 0.00 54 1010.6
20260504215314 82 138 8.0 20.0 0.00 0.00 0.00 53 1010.7
20260504214305 81 160 9.0 11.0 0.00 0.00 0.00 54 1010.9
20260504213313 81 145 7.0 14.0 0.00 0.00 0.00 53 1011.0
20260504212305 81 310 11.0 14.0 0.00 0.00 0.00 53 1011.1
20260504211333 81 186 12.0 15.0 0.00 0.00 0.00 52 1011.5
20260504210305 81 122 4.0 6.0 0.00 0.00 0.00 52 1011.5
20260504205314 82 208 7.0 8.0 0.00 0.00 0.00 51 1011.7
20260504204305 81 116 8.0 11.0 0.00 0.00 0.00 51 1011.7
20260504203313 81 167 18.0 26.0 0.00 0.00 0.00 50 1012.0
20260504202305 81 236 7.0 10.0 0.00 0.00 0.00 50 1012.2
20260504201313 81 150 9.0 16.0 0.00 0.00 0.00 49 1012.5
20260504200305 81 89 12.0 17.0 0.00 0.00 0.00 50 1012.7
20260504195333 81 292 13.0 18.0 0.00 0.00 0.00 49 1013.0
20260504194305 80 179 7.0 10.0 0.00 0.00 0.00 50 1013.1
20260504193313 80 144 8.0 14.0 0.00 0.00 0.00 51 1013.0
20260504192305 80 172 8.0 11.0 0.00 0.00 0.00 50 1013.3
20260504191233 80 150 8.0 11.0 0.00 0.00 0.00 49 1013.5
20260504190236 80 179 10.0 13.0 0.00 0.00 0.00 48 1013.8
20260504183417 80 357 6.0 11.0 0.00 0.00 0.00 47 1014.0
20260504182409 79 186 9.0 15.0 0.00 0.00 0.00 47 1014.1
20260504181418 78 115 10.0 13.0 0.00 0.00 0.00 47 1014.3
20260504180450 78 158 12.0 17.0 0.00 0.00 0.00 47 1014.5
20260504175418 78 111 14.0 22.0 0.00 0.00 0.00 47 1014.4
20260504174410 77 136 14.0 17.0 0.00 0.00 0.00 47 1014.8
20260504173418 77 149 11.0 14.0 0.00 0.00 0.00 47 1014.9
20260504172410 76 184 10.0 15.0 0.00 0.00 0.00 48 1015.1
20260504171437 77 204 12.0 18.0 0.00 0.00 0.00 48 1015.4
20260504170410 77 285 16.0 23.0 0.00 0.00 0.00 47 1015.5
20260504160410 74 41 7.0 13.0 0.00 0.00 0.00 51 1016.1
20260504150333 70 161 6.0 11.0 0.00 0.00 0.00 58 1016.5
20260504140333 68 94 3.0 7.0 0.00 0.00 0.00 64 1017.0
20260504130333 65 99 4.0 6.0 0.00 0.00 0.00 68 1017.0
20260504110306 63 179 2.0 3.0 0.00 0.00 0.00 68 1016.5
20260504100306 63 175 7.0 8.0 0.00 0.00 0.00 67 1017.0
20260504081315 66 137 6.0 8.0 0.00 0.00 0.00 55 1017.4
20260504080307 66 128 3.0 7.0 0.00 0.00 0.00 55 1017.2
20260504070306 66 154 3.0 3.0 0.00 0.00 0.00 55 1018.0
20260504060232 68 151 3.0 7.0 0.00 0.00 0.00 53 1018.8